KMF4402 VIDP-OAKB

Flight info

Callsign KMF4402
Flight time N/A
Altitude 40000
Route OROTI7G OROTI A589 ASARI A466 SULOM L509 HANGU DCT LAJAK DCT WEBRO
Aircraft A343/H-SDE2E3FGHIJ4J5M1RWXY/LB1D1

Departure

Time 2026-04-30 08:39
Airport Indira Gandhi International Airport (VIDP)

Arrival

Time N/A
Airport Kabul International Airport (OAKB)
Time Latitude Longitude Altitude Speed Heading
2026-04-30 08:08 28.56246 77.08186 782 ft 0 kts 240°
2026-04-30 08:09 28.56252 77.08170 753 ft 0 kts 240°
2026-04-30 08:10 28.56246 77.08186 753 ft 0 kts 240°
2026-04-30 08:19 28.56247 77.08187 754 ft 3 kts 240°
2026-04-30 08:19 28.56256 77.08206 751 ft 3 kts 240°
2026-04-30 08:20 28.56265 77.08225 749 ft 3 kts 240°
2026-04-30 08:20 28.56272 77.08246 749 ft 3 kts 285°
2026-04-30 08:20 28.56262 77.08267 749 ft 3 kts 330°
2026-04-30 08:20 28.56261 77.08268 749 ft 0 kts 336°
2026-04-30 08:29 28.56264 77.08267 754 ft 2 kts 335°
2026-04-30 08:29 28.56311 77.08227 750 ft 10 kts 309°
2026-04-30 08:29 28.56327 77.08174 751 ft 13 kts 285°
2026-04-30 08:30 28.56298 77.08058 749 ft 11 kts 204°
2026-04-30 08:30 28.56220 77.08034 752 ft 12 kts 194°
2026-04-30 08:30 28.56133 77.08008 750 ft 14 kts 194°
2026-04-30 08:30 28.56034 77.07980 753 ft 16 kts 194°
2026-04-30 08:31 28.55954 77.07957 751 ft 19 kts 194°
2026-04-30 08:31 28.55814 77.07917 751 ft 22 kts 194°
2026-04-30 08:31 28.55663 77.07873 752 ft 22 kts 194°
2026-04-30 08:31 28.55512 77.07830 753 ft 22 kts 195°
2026-04-30 08:32 28.55364 77.07786 754 ft 22 kts 193°
2026-04-30 08:32 28.55217 77.07744 751 ft 22 kts 195°
2026-04-30 08:32 28.55077 77.07718 753 ft 16 kts 163°
2026-04-30 08:32 28.55035 77.07788 752 ft 12 kts 104°
2026-04-30 08:33 28.55007 77.07911 754 ft 19 kts 107°
2026-04-30 08:33 28.54968 77.08075 751 ft 22 kts 105°
2026-04-30 08:33 28.54929 77.08247 751 ft 23 kts 104°
2026-04-30 08:33 28.54889 77.08421 754 ft 23 kts 105°
2026-04-30 08:34 28.54848 77.08593 752 ft 23 kts 104°
2026-04-30 08:34 28.54809 77.08767 753 ft 23 kts 104°
2026-04-30 08:34 28.54769 77.08940 750 ft 23 kts 105°
2026-04-30 08:34 28.54730 77.09113 755 ft 23 kts 104°
2026-04-30 08:35 28.54689 77.09286 753 ft 23 kts 105°
2026-04-30 08:35 28.54649 77.09460 751 ft 23 kts 104°
2026-04-30 08:35 28.54609 77.09634 751 ft 23 kts 104°
2026-04-30 08:35 28.54569 77.09808 752 ft 23 kts 105°
2026-04-30 08:36 28.54529 77.09981 756 ft 23 kts 104°
2026-04-30 08:36 28.54489 77.10154 752 ft 23 kts 104°
2026-04-30 08:36 28.54449 77.10327 753 ft 22 kts 105°
2026-04-30 08:36 28.54409 77.10499 754 ft 22 kts 105°
2026-04-30 08:37 28.54369 77.10564 751 ft 3 kts 175°
2026-04-30 08:37 28.54342 77.10558 752 ft 7 kts 193°
2026-04-30 08:37 28.54277 77.10541 756 ft 12 kts 193°
2026-04-30 08:37 28.54231 77.10488 754 ft 9 kts 260°
2026-04-30 08:38 28.54235 77.10450 757 ft 2 kts 282°
2026-04-30 08:38 28.54257 77.10339 755 ft 38 kts 283°
2026-04-30 08:38 28.54374 77.09804 754 ft 99 kts 284°
2026-04-30 08:38 28.54576 77.08865 752 ft 146 kts 283°
2026-04-30 08:39 28.54847 77.07600 811 ft 179 kts 281°
2026-04-30 08:39 28.55136 77.06263 1433 ft 173 kts 281°
2026-04-30 08:39 28.55473 77.04920 1875 ft 184 kts 286°
2026-04-30 08:39 28.55663 77.03389 1991 ft 209 kts 256°
2026-04-30 08:40 28.55035 77.01833 2345 ft 230 kts 239°
2026-04-30 08:40 28.54361 77.00106 2793 ft 252 kts 246°
2026-04-30 08:40 28.53791 76.98155 3448 ft 267 kts 251°
2026-04-30 08:40 28.53261 76.96090 3856 ft 272 kts 253°
2026-04-30 08:41 28.52766 76.94022 3999 ft 270 kts 254°
2026-04-30 08:41 28.52286 76.91964 3992 ft 268 kts 254°
2026-04-30 08:41 28.51814 76.89915 3996 ft 268 kts 254°
2026-04-30 08:41 28.51385 76.87848 3995 ft 269 kts 259°
2026-04-30 08:42 28.51446 76.85760 3997 ft 270 kts 280°
2026-04-30 08:42 28.51871 76.83682 3993 ft 271 kts 284°
2026-04-30 08:42 28.52340 76.81605 3998 ft 272 kts 283°
2026-04-30 08:42 28.52806 76.79527 3994 ft 272 kts 283°
2026-04-30 08:43 28.53267 76.77446 3986 ft 272 kts 283°
2026-04-30 08:43 28.53726 76.75352 3987 ft 272 kts 283°
2026-04-30 08:43 28.54183 76.73261 3988 ft 273 kts 283°
2026-04-30 08:43 28.54775 76.71224 3986 ft 273 kts 294°
2026-04-30 08:44 28.55747 76.69393 4149 ft 271 kts 304°
2026-04-30 08:44 28.56839 76.67622 4645 ft 275 kts 304°
2026-04-30 08:44 28.57944 76.65839 5489 ft 276 kts 304°
2026-04-30 08:44 28.59038 76.64071 6517 ft 271 kts 304°
2026-04-30 08:45 28.60109 76.62332 7495 ft 270 kts 304°
2026-04-30 08:45 28.61181 76.60589 8426 ft 271 kts 303°
2026-04-30 08:45 28.62265 76.58827 9427 ft 270 kts 302°
2026-04-30 08:45 28.63322 76.57107 10185 ft 276 kts 302°
2026-04-30 08:46 28.64470 76.55232 10620 ft 295 kts 302°
2026-04-30 08:46 28.65679 76.53258 10982 ft 313 kts 302°
2026-04-30 08:46 28.66948 76.51190 11505 ft 323 kts 303°
2026-04-30 08:46 28.68248 76.49073 12165 ft 329 kts 303°
2026-04-30 08:47 28.69563 76.46931 12898 ft 332 kts 303°
2026-04-30 08:47 28.70892 76.44764 13623 ft 336 kts 303°
2026-04-30 08:47 28.72217 76.42600 14258 ft 340 kts 303°
2026-04-30 08:47 28.73566 76.40396 14908 ft 344 kts 303°
2026-04-30 08:48 28.74942 76.38145 15569 ft 348 kts 303°
2026-04-30 08:48 28.76337 76.35865 16237 ft 352 kts 303°
2026-04-30 08:48 28.77741 76.33566 16913 ft 356 kts 303°
2026-04-30 08:48 28.79161 76.31240 17592 ft 359 kts 303°
2026-04-30 08:49 28.80591 76.28896 18220 ft 363 kts 303°
2026-04-30 08:49 28.82039 76.26523 18798 ft 367 kts 303°
2026-04-30 08:49 28.83507 76.24116 19378 ft 371 kts 303°
2026-04-30 08:49 28.84988 76.21685 19938 ft 375 kts 303°
2026-04-30 08:50 28.86485 76.19226 20469 ft 379 kts 303°
2026-04-30 08:50 28.87996 76.16743 21011 ft 383 kts 303°
2026-04-30 08:50 28.89521 76.14236 21548 ft 387 kts 303°
2026-04-30 08:50 28.91061 76.11703 22159 ft 389 kts 304°
2026-04-30 08:51 28.92605 76.09161 22734 ft 391 kts 304°
2026-04-30 08:51 28.94161 76.06597 23267 ft 394 kts 304°
2026-04-30 08:51 28.95730 76.04012 23705 ft 397 kts 304°
2026-04-30 08:51 28.97284 76.01448 24165 ft 399 kts 304°
2026-04-30 08:52 28.98867 75.98836 24635 ft 401 kts 304°
2026-04-30 08:52 29.00457 75.96211 25073 ft 403 kts 304°
2026-04-30 08:52 29.02054 75.93572 25542 ft 404 kts 304°
2026-04-30 08:52 29.03660 75.90917 25968 ft 406 kts 304°
2026-04-30 08:53 29.05267 75.88257 26391 ft 408 kts 304°
2026-04-30 08:53 29.06883 75.85581 26823 ft 410 kts 304°
2026-04-30 08:53 29.08509 75.82888 27187 ft 414 kts 304°
2026-04-30 08:53 29.10143 75.80179 27497 ft 418 kts 304°
2026-04-30 08:54 29.11803 75.77425 27894 ft 419 kts 304°
2026-04-30 08:54 29.13458 75.74679 28365 ft 419 kts 304°
2026-04-30 08:54 29.15115 75.71925 28767 ft 421 kts 304°
2026-04-30 08:54 29.16781 75.69156 29135 ft 423 kts 305°
2026-04-30 08:55 29.18451 75.66379 29486 ft 425 kts 305°
2026-04-30 08:55 29.20131 75.63584 29808 ft 427 kts 305°
2026-04-30 08:55 29.21817 75.60776 30135 ft 428 kts 305°
2026-04-30 08:55 29.23498 75.57973 30556 ft 426 kts 305°
2026-04-30 08:56 29.25168 75.55188 30995 ft 423 kts 305°
2026-04-30 08:56 29.26824 75.52425 31429 ft 421 kts 305°
2026-04-30 08:56 29.28408 75.49629 31990 ft 415 kts 301°
2026-04-30 08:56 29.29945 75.46870 32678 ft 405 kts 306°
2026-04-30 08:57 29.31665 75.44365 33419 ft 395 kts 311°
2026-04-30 08:57 29.33591 75.42170 34091 ft 386 kts 317°
2026-04-30 08:57 29.35683 75.40323 34381 ft 388 kts 323°
2026-04-30 08:58 29.40646 75.37649 34666 ft 403 kts 338°
2026-04-30 08:58 29.43409 75.36957 34904 ft 410 kts 345°
2026-04-30 08:58 29.46279 75.36734 35150 ft 418 kts 352°
2026-04-30 08:58 29.49197 75.36801 35390 ft 417 kts 351°
2026-04-30 08:59 29.52075 75.36611 35638 ft 412 kts 346°
2026-04-30 08:59 29.54920 75.36265 35882 ft 411 kts 346°
2026-04-30 08:59 29.57755 75.35875 36121 ft 410 kts 345°
2026-04-30 08:59 29.60582 75.35451 36416 ft 409 kts 345°
2026-04-30 09:00 29.63398 75.35007 36681 ft 407 kts 345°
2026-04-30 09:00 29.66206 75.34552 36918 ft 407 kts 345°
2026-04-30 09:00 29.69010 75.34093 37153 ft 407 kts 345°
2026-04-30 09:00 29.71768 75.33641 37378 ft 406 kts 345°
2026-04-30 09:01 29.74600 75.33178 37610 ft 406 kts 345°
2026-04-30 09:01 29.77399 75.32722 37830 ft 406 kts 345°
2026-04-30 09:01 29.80194 75.32268 38046 ft 406 kts 345°
2026-04-30 09:01 29.82987 75.31815 38263 ft 405 kts 345°
2026-04-30 09:02 29.88538 75.30916 38620 ft 405 kts 345°
2026-04-30 09:02 29.91324 75.30463 38772 ft 405 kts 345°
2026-04-30 09:02 29.94118 75.30009 38915 ft 405 kts 345°
2026-04-30 09:03 29.96912 75.29555 39057 ft 406 kts 345°
2026-04-30 09:03 29.99709 75.29100 39193 ft 406 kts 345°
2026-04-30 09:03 30.02509 75.28644 39326 ft 406 kts 345°
2026-04-30 09:03 30.05308 75.28189 39468 ft 407 kts 345°
2026-04-30 09:04 30.08113 75.27732 39603 ft 407 kts 345°
2026-04-30 09:04 30.10917 75.27274 39675 ft 409 kts 345°
2026-04-30 09:04 30.16592 75.26345 39685 ft 412 kts 345°
2026-04-30 09:05 30.22243 75.25427 39682 ft 409 kts 345°
2026-04-30 09:05 30.27872 75.24508 39682 ft 408 kts 345°
2026-04-30 09:06 30.33496 75.23587 39684 ft 408 kts 345°
2026-04-30 09:06 30.39124 75.22664 39686 ft 408 kts 345°
2026-04-30 09:07 30.44748 75.21741 39687 ft 409 kts 345°
2026-04-30 09:07 30.50381 75.20815 39690 ft 409 kts 345°
2026-04-30 09:08 30.56015 75.19889 39690 ft 409 kts 345°
2026-04-30 09:08 30.61649 75.18962 39698 ft 409 kts 345°
2026-04-30 09:09 30.67279 75.18034 39727 ft 409 kts 345°
2026-04-30 09:09 30.72907 75.17106 39701 ft 408 kts 345°
2026-04-30 09:10 30.78364 75.15643 39699 ft 398 kts 334°
2026-04-30 09:10 30.83146 75.12675 39703 ft 390 kts 321°
2026-04-30 09:11 30.87245 75.08561 39702 ft 389 kts 316°
2026-04-30 09:11 30.91195 75.04241 39699 ft 390 kts 315°
2026-04-30 09:12 30.95155 74.99876 39707 ft 392 kts 315°
2026-04-30 09:12 30.99132 74.95520 39708 ft 392 kts 315°
2026-04-30 09:13 31.03116 74.91171 39719 ft 392 kts 315°
2026-04-30 09:13 31.07101 74.86820 39712 ft 392 kts 315°
2026-04-30 09:14 31.11082 74.82468 39710 ft 392 kts 315°
2026-04-30 09:14 31.15065 74.78106 39715 ft 392 kts 315°
2026-04-30 09:15 31.19045 74.73743 39720 ft 391 kts 315°
2026-04-30 09:15 31.23004 74.69397 39716 ft 390 kts 315°
2026-04-30 09:16 31.26957 74.65053 39720 ft 390 kts 315°
2026-04-30 09:16 31.30241 74.61440 39724 ft 390 kts 315°
2026-04-30 09:17 31.34893 74.56450 39732 ft 391 kts 319°
2026-04-30 09:17 31.39175 74.52506 39739 ft 392 kts 320°
2026-04-30 09:18 31.42766 74.49273 39744 ft 392 kts 320°
2026-04-30 09:18 31.47117 74.45373 39743 ft 391 kts 320°
2026-04-30 09:19 31.51408 74.41517 39749 ft 391 kts 320°
2026-04-30 09:19 31.55719 74.37632 39744 ft 391 kts 320°
2026-04-30 09:20 31.60041 74.33729 39738 ft 392 kts 320°
2026-04-30 09:20 31.64373 74.29812 39751 ft 394 kts 319°
2026-04-30 09:21 31.68721 74.25879 39727 ft 393 kts 319°
2026-04-30 09:21 31.73053 74.21955 39729 ft 393 kts 319°
2026-04-30 09:22 31.77383 74.18027 39731 ft 393 kts 319°
2026-04-30 09:22 31.81710 74.14096 39732 ft 393 kts 319°
2026-04-30 09:23 31.86012 74.10184 39733 ft 393 kts 319°
2026-04-30 09:23 31.90339 74.06245 39736 ft 393 kts 319°
2026-04-30 09:24 31.94672 74.02295 39731 ft 393 kts 319°
2026-04-30 09:24 31.98996 73.98349 39737 ft 394 kts 319°
2026-04-30 09:25 32.02975 73.94713 39740 ft 395 kts 319°
2026-04-30 09:25 32.07319 73.90739 39740 ft 395 kts 319°
2026-04-30 09:26 32.11659 73.86764 39759 ft 395 kts 319°
2026-04-30 09:26 32.15996 73.82787 39747 ft 395 kts 319°
2026-04-30 09:27 32.20335 73.78803 39730 ft 395 kts 319°
2026-04-30 09:27 32.24671 73.74816 39734 ft 395 kts 319°
2026-04-30 09:28 32.28979 73.70850 39750 ft 395 kts 319°
2026-04-30 09:28 32.33316 73.66853 39741 ft 395 kts 319°
2026-04-30 09:29 32.37653 73.62851 39736 ft 395 kts 319°
2026-04-30 09:29 32.41994 73.58840 39745 ft 396 kts 319°
2026-04-30 09:30 32.46339 73.54821 39741 ft 396 kts 319°
2026-04-30 09:30 32.50682 73.50798 39742 ft 396 kts 319°
2026-04-30 09:31 32.55021 73.46774 39739 ft 396 kts 319°
2026-04-30 09:31 32.59365 73.42739 39752 ft 396 kts 319°
2026-04-30 09:32 32.63678 73.38729 39748 ft 397 kts 319°
2026-04-30 09:32 32.68017 73.34690 39749 ft 397 kts 319°
2026-04-30 09:33 32.72359 73.30642 39749 ft 397 kts 319°
2026-04-30 09:33 32.76484 73.26319 39747 ft 394 kts 310°
2026-04-30 09:34 32.79766 73.21117 39748 ft 393 kts 303°
2026-04-30 09:34 32.82800 73.15707 39750 ft 394 kts 303°
2026-04-30 09:35 32.85800 73.10250 39765 ft 394 kts 303°
2026-04-30 09:35 32.88806 73.04800 39756 ft 394 kts 303°
2026-04-30 09:36 32.91824 72.99347 39772 ft 394 kts 303°
2026-04-30 09:36 32.94844 72.93892 39766 ft 395 kts 302°